Flight Track Log - Related Links

Times and Time Zones

All times are in EST time to prevent confusion due to time zone crossing. See the AAL1326 flight status page for this flight to view local times or setup timezone preferences in your user account.

Time Position Orientation Groundspeed Altitude Reporting Facility
EST Latitude Longitude Course Direction KTS MPH feet Rate Location/Type
08:44AM 36.1947 -95.9047 58° Northeast 150 173 1,200  Level Kansas City Center
08:45AM 36.2075 -95.9575 287° West 193 222 2,900 1,918 Climbing Kansas City Center
08:46AM 36.3637 -95.6861 64° Northeast  Level Estimated
08:46AM 36.2378 -95.9681 344° North 224 258 4,300  Level Kansas City Center
08:46AM 36.2653 -95.9475 31° Northeast 252 290 6,200 3,000 Climbing Kansas City Center
08:47AM 36.4462 -95.5848 58° Northeast  Level Estimated
08:47AM 36.2831 -95.9036 63° Northeast 267 307 7,400  Level Kansas City Center
08:48AM 36.4561 -95.4410 85° East  Level FlightAware Approximate
08:48AM 36.3200 -95.8136 63° Northeast 289 333 10,900  Level Kansas City Center
08:49AM 36.5391 -95.3403 58° Northeast  Level Estimated
08:49AM 36.3686 -95.7022 62° Northeast 357 411 13,500  Level Kansas City Center
08:50AM 36.4242 -95.5744 62° Northeast 386 444 17,000 3,268 Climbing Kansas City Center
08:51AM 36.4794 -95.4444 62° Northeast 418 481 20,200 2,927 Climbing Kansas City Center
08:52AM 36.5375 -95.3100 62° Northeast 432 497 23,000 2,312 Climbing Kansas City Center
08:58AM 36.9679 -94.4379 62° Northeast 468 539 36,500 2,211 Climbing FlightAware ADS-B
08:58AM 37.0241 -94.3643 46° Northeast 458 527 37,700 1,475 Climbing FlightAware ADS-B
09:00AM 37.1401 -94.2120 46° Northeast 460 529 39,400 1,145 Climbing FlightAware ADS-B
09:01AM 37.2765 -94.0310 47° Northeast 462 532 41,000 738 Climbing FlightAware ADS-B
09:02AM 37.3257 -93.9655 47° Northeast 452 520 41,000  Level FlightAware ADS-B
09:03AM 37.3747 -93.9007 46° Northeast 451 519 41,000  Level FlightAware ADS-B
09:03AM 37.4176 -93.8443 46° Northeast 451 519 41,000  Level FlightAware ADS-B
09:04AM 37.4612 -93.7863 47° Northeast 452 520 41,000  Level FlightAware ADS-B
09:04AM 37.5062 -93.7258 47° Northeast 453 521 41,000  Level FlightAware ADS-B
09:05AM 37.5488 -93.6685 47° Northeast 453 521 41,000  Level FlightAware ADS-B
09:05AM 37.5923 -93.6101 47° Northeast 453 521 41,000  Level FlightAware ADS-B
09:06AM 37.6350 -93.5526 47° Northeast 453 521 41,000  Level FlightAware ADS-B
09:06AM 37.6700 -93.5017 47° Northeast 450 518 41,000  Level Kansas City Center
09:07AM 37.7592 -93.3856 46° Northeast 455 524 41,000  Level Kansas City Center
09:08AM 37.8450 -93.2675 47° Northeast 454 522 41,000  Level Kansas City Center
09:09AM 37.9308 -93.1508 47° Northeast 452 520 41,000  Level Kansas City Center
09:10AM 38.0181 -93.0314 47° Northeast 454 522 41,000  Level Kansas City Center
09:11AM 38.1042 -92.9117 48° Northeast 455 524 41,000  Level Kansas City Center
09:12AM 38.2111 -92.7683 46° Northeast 460 529 41,000  Level Kansas City Center
09:13AM 38.2969 -92.6464 48° Northeast 457 526 41,000  Level Kansas City Center
09:14AM 38.3844 -92.5264 47° Northeast 456 525 41,000  Level Kansas City Center
09:15AM 38.4708 -92.4058 48° Northeast 456 525 41,000  Level Kansas City Center
09:16AM 38.5569 -92.2861 47° Northeast 453 521 41,000  Level Kansas City Center
09:17AM 38.6422 -92.1636 48° Northeast 454 522 41,000  Level Kansas City Center
09:18AM 38.7269 -92.0442 48° Northeast 451 519 41,000  Level Kansas City Center
09:19AM 38.8117 -91.9250 48° Northeast 450 518 41,000  Level Kansas City Center
09:20AM 38.8953 -91.8075 48° Northeast 446 513 41,000  Level Kansas City Center
09:21AM 38.9786 -91.6894 48° Northeast 444 511 41,000  Level Kansas City Center
09:23AM 39.0636 -91.5689 48° Northeast 446 513 41,000  Level Kansas City Center
09:24AM 39.1486 -91.4481 48° Northeast 450 518 41,000  Level Kansas City Center
09:25AM 39.2342 -91.3256 48° Northeast 454 522 41,000  Level Kansas City Center
09:26AM 39.3186 -91.2025 48° Northeast 456 525 41,000  Level Kansas City Center
09:30AM 39.7389 -90.5865 48° Northeast 456 525 41,000 -88 Level FlightAware ADS-B (CYQU)
09:31AM 39.8106 -90.4822 48° Northeast 450 518 40,500 -1,100 Descending Chicago Center
09:37AM 40.2834 -89.8947 48° Northeast 444 511 34,200 -1,146 Descending FlightAware ADS-B (CYQU)
09:38AM 40.3746 -89.7899 41° Northeast 454 522 33,300 -1,558 Descending FlightAware ADS-B (CYQU)
09:38AM 40.4432 -89.7110 41° Northeast 450 518 31,500 -2,526 Descending FlightAware ADS-B (CYQU)
09:39AM 40.4973 -89.6501 41° Northeast 458 527 30,100 -2,609 Descending FlightAware ADS-B (CYQU)
09:39AM 40.5556 -89.5833 41° Northeast 456 525 28,500 -2,400 Descending FlightAware ADS-B (CYQU)
09:40AM 40.6152 -89.5145 41° Northeast 448 516 27,100 -2,296 Descending FlightAware ADS-B (CYQU)
09:41AM 40.6800 -89.4400 41° Northeast 437 503 25,400 -2,188 Descending FlightAware ADS-B (CYQU)
09:42AM 40.7433 -89.3684 41° Northeast 423 487 24,000 -1,151 Descending FlightAware ADS-B (CYQU)
09:42AM 40.7896 -89.3133 42° Northeast 425 489 24,000  Level FlightAware ADS-B (CYQU)
09:43AM 40.8384 -89.2537 43° Northeast 425 489 24,000 -1,059 Level FlightAware ADS-B (CYQU)
09:43AM 40.8884 -89.1931 42° Northeast 423 487 22,800 -2,328 Descending FlightAware ADS-B (CYQU)
09:44AM 40.9357 -89.1366 42° Northeast 414 476 21,400 -2,526 Descending FlightAware ADS-B (CYQU)
09:44AM 40.9946 -89.0664 42° Northeast 402 463 19,600 -2,640 Descending FlightAware ADS-B
09:45AM 41.0281 -89.0265 42° Northeast 395 455 18,100 -2,455 Descending FlightAware ADS-B (CYQU)
09:46AM 41.0842 -88.9592 42° Northeast 392 451 16,900 -1,938 Descending FlightAware ADS-B (EGPH / EDI)
09:46AM 41.1261 -88.9088 42° Northeast 394 453 16,000 -1,742 Descending FlightAware ADS-B (CYQU)
09:47AM 41.1676 -88.8583 42° Northeast 390 449 15,100 -1,714 Descending FlightAware ADS-B (CYQU)
09:47AM 41.2056 -88.8123 42° Northeast 382 440 14,200 -1,742 Descending FlightAware ADS-B
09:48AM 41.2413 -88.7686 43° Northeast 374 430 13,300 -1,500 Descending FlightAware ADS-B (CYQU)
09:48AM 41.3116 -88.6836 42° Northeast 366 421 12,200 -1,412 Descending FlightAware ADS-B
09:49AM 41.3548 -88.6307 43° Northeast 353 406 11,300 -1,200 Descending FlightAware ADS-B (CYQU)
09:50AM 41.3830 -88.5969 42° Northeast 349 402 10,900 -369 Descending FlightAware ADS-B (CYQU)
09:50AM 41.4324 -88.5380 42° Northeast 346 398 10,900  Level FlightAware ADS-B
09:51AM 41.4727 -88.4901 42° Northeast 348 400 10,900 -243 Level FlightAware ADS-B (CYQU)
09:51AM 41.5211 -88.4327 42° Northeast 349 402 10,600 -658 Descending FlightAware ADS-B (CYQU)
09:52AM 41.5570 -88.3896 42° Northeast 348 400 10,100 -636 Descending FlightAware ADS-B (CYQU)
09:52AM 41.6006 -88.3376 42° Northeast 345 397 9,900 -231 Descending FlightAware ADS-B
09:53AM 41.6159 -88.3193 42° Northeast 344 396 9,900  Level FlightAware ADS-B
09:53AM 41.6450 -88.2848 42° Northeast 344 396 9,900  Level FlightAware ADS-B
09:53AM 41.6685 -88.2568 42° Northeast 345 397 9,900  Level FlightAware ADS-B (CYQU)
09:54AM 41.6943 -88.2260 42° Northeast 317 365 9,900  Level FlightAware ADS-B
09:54AM 41.7096 -88.2077 42° Northeast 300 345 9,900 -400 Level FlightAware ADS-B (CYQU)
09:54AM 41.7256 -88.1888 41° Northeast 291 335 9,700 -1,286 Descending FlightAware ADS-B (CYQU)
09:55AM 41.7522 -88.1575 41° Northeast 286 329 9,000 -1,467 Descending FlightAware ADS-B (EGPH / EDI)
09:55AM 41.7701 -88.1362 42° Northeast 283 326 8,600 -1,412 Descending FlightAware ADS-B (CYQU)
09:55AM 41.7852 -88.1178 42° Northeast 281 323 8,200 -1,548 Descending FlightAware ADS-B (CYQU)
09:56AM 41.7998 -88.0996 43° Northeast 284 327 7,800 -1,655 Descending FlightAware ADS-B (CYQU)
09:56AM 41.8109 -88.0795 54° Northeast 292 336 7,400 -1,548 Descending FlightAware ADS-B
09:56AM 41.7998 -88.0996 234° Southwest 295 339 7,000 -750 Descending FlightAware ADS-B (EGPH / EDI)
09:56AM 41.8293 -88.0146 65° Northeast 294 338 6,900 -140 Descending FlightAware ADS-B
09:57AM 41.8389 -87.9770 71° East 292 336 6,900  Level FlightAware ADS-B
09:57AM 41.8460 -87.9498 71° East 292 336 6,900  Level FlightAware ADS-B (CYQU)
09:57AM 41.8532 -87.9222 71° East 292 336 6,900  Level FlightAware ADS-B (EGPH / EDI)
09:58AM 41.8634 -87.8829 71° East 291 335 6,900  Level FlightAware ADS-B (CYQU)
09:58AM 41.8709 -87.8534 71° East 291 335 6,900  Level FlightAware ADS-B (CYQU)
09:58AM 41.8766 -87.8254 75° East 290 334 6,900 -143 Level FlightAware ADS-B (CYQU)
09:59AM 41.8824 -87.7788 80° East 288 331 6,800 -750 Descending FlightAware ADS-B (CYQU)
09:59AM 41.8839 -87.7527 86° East 285 328 6,300 -1,304 Descending FlightAware ADS-B
09:59AM 41.8839 -87.7030 90° East 279 321 5,800 -1,227 Descending FlightAware ADS-B
10:00AM 41.8837 -87.6650 90° East 275 316 5,400 -1,200 Descending FlightAware ADS-B
10:00AM 41.8837 -87.6308 90° East 273 314 5,000 -857 Descending FlightAware ADS-B
10:00AM 41.8858 -87.6066 83° East 257 296 4,900 -300 Descending FlightAware ADS-B (CYQU)
10:00AM 41.8881 -87.5995 67° East 252 290 4,900 353 Level FlightAware ADS-B
10:01AM 41.8966 -87.5857 50° Northeast 241 277 5,000 333 Climbing FlightAware ADS-B (CYQU)
10:01AM 41.8926 -87.5908 223° Southwest 227 261 5,000 -240 Level FlightAware ADS-B (EGPH / EDI)
10:01AM 41.9062 -87.5789 33° Northeast 220 253 4,900 -188 Descending FlightAware ADS-B (EGPH / EDI)
10:01AM 41.9338 -87.5811 356° North 207 238 4,900  Level FlightAware ADS-B (CYQU)
10:01AM 41.9230 -87.5768 163° South 205 236 4,900  Level FlightAware ADS-B (EGPH / EDI)
10:02AM 41.9442 -87.5964 325° Northwest 199 229 4,900  Level FlightAware ADS-B (CYQU)
10:02AM 41.9491 -87.6081 300° West 180 207 4,900 -387 Level FlightAware ADS-B (CYQU)
10:02AM 41.9554 -87.6225 300° West 172 198 4,700 -789 Descending FlightAware ADS-B (CYQU)
10:02AM 41.9640 -87.6472 295° West 162 186 4,400 -769 Descending FlightAware ADS-B
10:03AM 41.9653 -87.6607 278° West 155 178 4,200 -750 Descending FlightAware ADS-B (CYQU)
10:03AM 41.9660 -87.6856 272° West 153 176 3,900 -968 Descending FlightAware ADS-B
10:03AM 41.9660 -87.6846 92° East 160 184 3,700 -923 Descending FlightAware ADS-B (EGPH / EDI)
10:04AM 41.9660 -87.7104 270° West 155 178 3,500 -875 Descending FlightAware ADS-B (CYQU)
10:04AM 41.9658 -87.7398 270° West 156 180 3,000 -857 Descending FlightAware ADS-B (CYQU)
10:04AM 41.9658 -87.7568 270° West 150 173 2,800 -837 Descending FlightAware ADS-B (CYQU)
10:05AM 41.9658 -87.7795 270° West 146 168 2,400 -955 Descending FlightAware ADS-B
10:05AM 41.9657 -87.7969 269° West 132 152 2,100 -833 Descending FlightAware ADS-B
10:05AM 41.9659 -87.8080 271° West 118 136 1,900 -585 Descending FlightAware ADS-B (CYQU)
10:06AM 41.9658 -87.8271 270° West 120 138 1,700 -682 Descending FlightAware ADS-B
10:06AM 41.9657 -87.8418 270° West 126 145 1,400 -750 Descending FlightAware ADS-B
10:06AM 41.9658 -87.8582 270° West 126 145 1,200 -750 Descending FlightAware ADS-B
10:07AM 41.9657 -87.8729 270° West 127 146 900 -750 Descending FlightAware ADS-B
10:07AM 41.9658 -87.8874 270° West 127 146 700 -571 Descending FlightAware ADS-B

Login

Don't have an account? Register now (free) for customized features, flight alerts, and more!